TimeCDT,TemperatureF,Dew PointF,Humidity,Sea Level PressureIn,VisibilityMPH,Wind Direction,Wind SpeedMPH,Gust SpeedMPH,PrecipitationIn,Events,Conditions,WindDirDegrees,DateUTC
12:13 AM,32.0,26.6,80,29.80,7.0,Calm,Calm,-,N/A,Snow,Light Snow,0,2013-10-22 05:13:00
12:33 AM,30.2,26.6,86,29.81,10.0,WNW,4.6,-,N/A,,Clear,300,2013-10-22 05:33:00
12:53 AM,30.2,26.6,86,29.82,10.0,Calm,Calm,-,N/A,,Clear,0,2013-10-22 05:53:00
1:13 AM,30.2,26.6,86,29.82,10.0,Calm,Calm,-,N/A,,Clear,0,2013-10-22 06:13:00
1:33 AM,30.2,26.6,86,29.83,10.0,Calm,Calm,-,N/A,,Clear,0,2013-10-22 06:33:00
1:53 AM,30.2,24.8,80,29.84,10.0,Calm,Calm,-,N/A,,Clear,0,2013-10-22 06:53:00
2:13 AM,30.2,24.8,80,29.84,10.0,Calm,Calm,-,N/A,,Clear,0,2013-10-22 07:13:00
2:34 AM,30.2,24.8,80,29.85,10.0,Calm,Calm,-,N/A,,Clear,0,2013-10-22 07:34:00
2:53 AM,28.4,24.8,86,29.85,10.0,Calm,Calm,-,N/A,,Clear,0,2013-10-22 07:53:00
3:13 AM,26.6,24.8,93,29.85,10.0,Calm,Calm,-,N/A,,Clear,0,2013-10-22 08:13:00
3:33 AM,28.4,24.8,86,29.85,10.0,Calm,Calm,-,N/A,,Clear,0,2013-10-22 08:33:00
3:53 AM,28.4,24.8,86,29.85,10.0,Calm,Calm,-,N/A,,Clear,0,2013-10-22 08:53:00
4:13 AM,28.4,24.8,86,29.86,10.0,Calm,Calm,-,N/A,,Clear,0,2013-10-22 09:13:00
4:33 AM,28.4,24.8,86,29.86,10.0,Calm,Calm,-,N/A,,Clear,0,2013-10-22 09:33:00
4:53 AM,28.4,24.8,86,29.86,10.0,Calm,Calm,-,N/A,,Clear,0,2013-10-22 09:53:00
5:13 AM,26.6,23.0,86,29.87,10.0,Calm,Calm,-,N/A,,Clear,0,2013-10-22 10:13:00
5:33 AM,26.6,23.0,86,29.88,10.0,Calm,Calm,-,N/A,,Clear,0,2013-10-22 10:33:00
5:53 AM,26.6,23.0,86,29.88,10.0,Calm,Calm,-,N/A,,Scattered Clouds,0,2013-10-22 10:53:00
6:13 AM,26.6,24.8,93,29.89,10.0,Calm,Calm,-,N/A,,Scattered Clouds,0,2013-10-22 11:13:00
6:33 AM,30.2,21.2,69,29.89,10.0,NNW,8.1,-,N/A,,Clear,340,2013-10-22 11:33:00
6:53 AM,30.2,21.2,69,29.89,10.0,Calm,Calm,-,N/A,,Scattered Clouds,0,2013-10-22 11:53:00
7:13 AM,30.2,21.2,69,29.90,10.0,NW,4.6,-,N/A,,Scattered Clouds,320,2013-10-22 12:13:00
7:33 AM,30.2,21.2,69,29.90,10.0,Calm,Calm,-,N/A,,Scattered Clouds,0,2013-10-22 12:33:00
7:53 AM,30.2,21.2,69,29.91,10.0,Calm,Calm,-,N/A,,Clear,0,2013-10-22 12:53:00
8:13 AM,30.2,21.2,69,29.92,10.0,WNW,3.5,-,N/A,,Clear,300,2013-10-22 13:13:00
8:33 AM,30.2,21.2,69,29.92,10.0,Calm,Calm,-,N/A,,Clear,0,2013-10-22 13:33:00
8:53 AM,30.2,21.2,69,29.93,10.0,Calm,Calm,-,N/A,,Clear,0,2013-10-22 13:53:00
9:13 AM,30.2,21.2,69,29.93,10.0,NNW,4.6,-,N/A,,Clear,340,2013-10-22 14:13:00
9:33 AM,30.2,21.2,69,29.93,10.0,NNW,3.5,-,N/A,,Clear,340,2013-10-22 14:33:00
9:53 AM,30.2,19.4,64,29.94,10.0,NW,8.1,-,N/A,,Clear,320,2013-10-22 14:53:00
10:13 AM,32.0,19.4,60,29.93,10.0,NNW,8.1,-,N/A,,Clear,330,2013-10-22 15:13:00
10:34 AM,32.0,21.2,64,29.94,10.0,NNW,5.8,-,N/A,,Clear,330,2013-10-22 15:34:00
10:53 AM,35.6,21.2,56,29.93,10.0,NW,8.1,-,N/A,,Clear,320,2013-10-22 15:53:00
11:13 AM,33.8,21.2,60,29.93,10.0,NNW,8.1,-,N/A,,Clear,330,2013-10-22 16:13:00
11:33 AM,33.8,21.2,60,29.94,10.0,NW,3.5,-,N/A,,Clear,320,2013-10-22 16:33:00
11:53 AM,35.6,21.2,56,29.94,10.0,NW,6.9,-,N/A,,Clear,320,2013-10-22 16:53:00
12:13 PM,35.6,21.2,56,29.94,10.0,North,6.9,-,N/A,,Clear,10,2013-10-22 17:13:00
12:34 PM,35.6,21.2,56,29.94,10.0,North,4.6,-,N/A,,Clear,350,2013-10-22 17:34:00
12:53 PM,35.6,21.2,56,29.94,10.0,NNW,9.2,-,N/A,,Clear,330,2013-10-22 17:53:00
1:13 PM,35.6,21.2,56,29.94,10.0,North,8.1,-,N/A,,Clear,10,2013-10-22 18:13:00
1:33 PM,35.6,21.2,56,29.94,10.0,North,8.1,-,N/A,,Clear,350,2013-10-22 18:33:00
1:53 PM,35.6,19.4,52,29.93,10.0,NNW,8.1,-,N/A,,Clear,330,2013-10-22 18:53:00
2:13 PM,35.6,19.4,52,29.93,10.0,NNW,8.1,-,N/A,,Clear,330,2013-10-22 19:13:00
2:33 PM,35.6,19.4,52,29.93,10.0,NW,4.6,-,N/A,,Clear,320,2013-10-22 19:33:00
2:53 PM,35.6,19.4,52,29.94,10.0,North,4.6,-,N/A,,Scattered Clouds,350,2013-10-22 19:53:00
3:14 PM,35.6,19.4,52,29.94,10.0,North,5.8,-,N/A,,Scattered Clouds,360,2013-10-22 20:14:00
3:33 PM,33.8,19.4,56,29.95,10.0,NW,6.9,-,N/A,,Scattered Clouds,310,2013-10-22 20:33:00
3:53 PM,33.8,19.4,56,29.95,10.0,Calm,Calm,-,N/A,,Scattered Clouds,0,2013-10-22 20:53:00
4:13 PM,33.8,19.4,56,29.95,10.0,Calm,Calm,-,N/A,,Mostly Cloudy,0,2013-10-22 21:13:00
4:33 PM,33.8,19.4,56,29.95,10.0,Calm,Calm,-,N/A,,Mostly Cloudy,0,2013-10-22 21:33:00
4:53 PM,33.8,19.4,56,29.95,10.0,Calm,Calm,-,N/A,,Overcast,0,2013-10-22 21:53:00
5:13 PM,33.8,19.4,56,29.95,10.0,Calm,Calm,-,N/A,,Mostly Cloudy,0,2013-10-22 22:13:00
5:33 PM,33.8,19.4,56,29.95,10.0,Calm,Calm,-,N/A,,Mostly Cloudy,0,2013-10-22 22:33:00
5:53 PM,33.8,19.4,56,29.95,10.0,Calm,Calm,-,N/A,,Overcast,0,2013-10-22 22:53:00
6:13 PM,33.8,21.2,60,29.95,10.0,Calm,Calm,-,N/A,,Overcast,0,2013-10-22 23:13:00
6:33 PM,30.2,21.2,69,29.95,10.0,Calm,Calm,-,N/A,,Overcast,0,2013-10-22 23:33:00
6:53 PM,28.4,21.2,74,29.95,10.0,Calm,Calm,-,N/A,,Scattered Clouds,0,2013-10-22 23:53:00
7:13 PM,28.4,21.2,74,29.95,10.0,Calm,Calm,-,N/A,,Clear,0,2013-10-23 00:13:00
7:33 PM,26.6,21.2,80,29.95,10.0,Calm,Calm,-,N/A,,Clear,0,2013-10-23 00:33:00
7:53 PM,26.6,21.2,80,29.95,10.0,Calm,Calm,-,N/A,,Scattered Clouds,0,2013-10-23 00:53:00
8:13 PM,28.4,21.2,74,29.94,10.0,Calm,Calm,-,N/A,,Overcast,0,2013-10-23 01:13:00
8:33 PM,28.4,23.0,80,29.94,10.0,Calm,Calm,-,N/A,,Overcast,0,2013-10-23 01:33:00
8:53 PM,28.4,23.0,80,29.94,10.0,Calm,Calm,-,N/A,,Overcast,0,2013-10-23 01:53:00
9:13 PM,28.4,23.0,80,29.94,10.0,Calm,Calm,-,N/A,,Overcast,0,2013-10-23 02:13:00
9:33 PM,30.2,23.0,75,29.94,10.0,Calm,Calm,-,N/A,,Overcast,0,2013-10-23 02:33:00
9:53 PM,30.2,23.0,75,29.94,10.0,Calm,Calm,-,N/A,,Overcast,0,2013-10-23 02:53:00
10:13 PM,28.4,23.0,80,29.93,10.0,Calm,Calm,-,N/A,,Scattered Clouds,0,2013-10-23 03:13:00
10:33 PM,28.4,23.0,80,29.93,10.0,Calm,Calm,-,N/A,,Clear,0,2013-10-23 03:33:00
10:53 PM,28.4,21.2,74,29.93,10.0,Calm,Calm,-,N/A,,Clear,0,2013-10-23 03:53:00
11:13 PM,26.6,21.2,80,29.92,10.0,Calm,Calm,-,N/A,,Clear,0,2013-10-23 04:13:00
11:33 PM,26.6,21.2,80,29.92,10.0,Calm,Calm,-,N/A,,Clear,0,2013-10-23 04:33:00
11:53 PM,24.8,21.2,86,29.92,10.0,Calm,Calm,-,N/A,,Clear,0,2013-10-23 04:53:00